When you browse on this site, cookies collect data to enhance your experience and personalize the content and advertising you see.
Visit our Privacy Policy to learn more. By continuing to use the site, you agree to this use of cookies and data.
  • en France
  • Liste des pays
  • À 7 jours
  • Température de l'eau
  • Carte satellitaire
  • Carte météo
  • Widgets météo
  • user-avatar
    Se connecter

    Météo par heure à Sharan

    Ce jour, 24 Janvier, Jeudi

    Heure Température Précipitation Vent Pression Humidité
    00:00 -8°C° 0 mm 2 m/s 584 mmHg 69%
    01:00 -8°C° 0 mm 2 m/s 584 mmHg 69%
    02:00 -8°C° 0 mm 2 m/s 584 mmHg 69%
    03:00 -9°C° 0 mm 2 m/s 584 mmHg 69%
    04:00 -9°C° 0 mm 2 m/s 584 mmHg 69%
    05:00 -9°C° 0 mm 2 m/s 583 mmHg 70%
    06:00 -9°C° 0 mm 2 m/s 584 mmHg 70%
    07:00 -9°C° 0 mm 2 m/s 584 mmHg 69%
    08:00 -10°C° 0 mm 2 m/s 584 mmHg 68%
    09:00 -8°C° 0 mm 2 m/s 585 mmHg 63%
    10:00 -7°C° 0 mm 2 m/s 585 mmHg 58%
    11:00 -6°C° 0 mm 2 m/s 585 mmHg 50%
    12:00 -6°C° 0 mm 3 m/s 585 mmHg 48%
    13:00 -5°C° 0 mm 3 m/s 585 mmHg 46%
    14:00 -4°C° 0 mm 3 m/s 585 mmHg 44%
    15:00 -5°C° 0 mm 3 m/s 585 mmHg 46%
    16:00 -5°C° 0 mm 3 m/s 584 mmHg 49%
    17:00 -6°C° 0 mm 3 m/s 584 mmHg 51%
    18:00 -6°C° 0 mm 2 m/s 584 mmHg 53%
    19:00 -7°C° 0 mm 2 m/s 584 mmHg 56%
    20:00 -8°C° 0 mm 2 m/s 584 mmHg 58%
    21:00 -8°C° 0 mm 2 m/s 584 mmHg 57%
    22:00 -9°C° 0 mm 2 m/s 584 mmHg 56%
    23:00 -9°C° 0 mm 2 m/s 584 mmHg 55%

    Demain, 25 Janvier, Vendredi

    Heure Température Précipitation Vent Pression Humidité
    00:00 -9°C° 0 mm 2 m/s 584 mmHg 53%
    01:00 -10°C° 0 mm 2 m/s 584 mmHg 52%
    02:00 -10°C° 0 mm 2 m/s 584 mmHg 51%
    03:00 -10°C° 0 mm 2 m/s 583 mmHg 51%
    04:00 -10°C° 0 mm 2 m/s 583 mmHg 52%
    05:00 -12°C° 0 mm 2 m/s 583 mmHg 52%
    06:00 -12°C° 0 mm 2 m/s 583 mmHg 53%
    07:00 -12°C° 0 mm 2 m/s 583 mmHg 53%
    08:00 -12°C° 0 mm 2 m/s 583 mmHg 53%
    09:00 -9°C° 0 mm 2 m/s 584 mmHg 49%
    10:00 -8°C° 0 mm 2 m/s 584 mmHg 45%
    11:00 -6°C° 0 mm 2 m/s 585 mmHg 41%
    12:00 -5°C° 0 mm 2 m/s 584 mmHg 40%
    13:00 -4°C° 0 mm 2 m/s 584 mmHg 38%
    14:00 -4°C° 0 mm 2 m/s 584 mmHg 37%
    15:00 -4°C° 0 mm 2 m/s 583 mmHg 39%
    16:00 -2°C° 0 mm 1 m/s 583 mmHg 41%
    17:00 -3°C° 0 mm 1 m/s 583 mmHg 43%
    18:00 -4°C° 0 mm 1 m/s 583 mmHg 45%
    19:00 -6°C° 0 mm 1 m/s 584 mmHg 47%
    20:00 -7°C° 0 mm 1 m/s 584 mmHg 49%
    21:00 -7°C° 0 mm 1 m/s 584 mmHg 50%
    22:00 -7°C° 0 mm 1 m/s 584 mmHg 50%
    23:00 -7°C° 0 mm 1 m/s 585 mmHg 51%

    Après-demain, 26 Janvier, Samedi

    Heure Température Précipitation Vent Pression Humidité
    00:00 -7°C° 0 mm 1 m/s 584 mmHg 51%
    01:00 -8°C° 0 mm 1 m/s 584 mmHg 51%
    02:00 -8°C° 0 mm 1 m/s 584 mmHg 51%
    03:00 -8°C° 0 mm 1 m/s 584 mmHg 51%
    04:00 -9°C° 0 mm 2 m/s 584 mmHg 51%
    05:00 -9°C° 0 mm 2 m/s 584 mmHg 51%
    06:00 -9°C° 0 mm 2 m/s 584 mmHg 51%
    07:00 -9°C° 0 mm 2 m/s 585 mmHg 50%
    08:00 -9°C° 0 mm 2 m/s 585 mmHg 50%
    09:00 -7°C° 0 mm 1 m/s 586 mmHg 46%
    10:00 -4°C° 0 mm 1 m/s 586 mmHg 41%
    11:00 -3°C° 0 mm 1 m/s 587 mmHg 37%
    12:00 -2°C° 0 mm 1 m/s 587 mmHg 37%
    13:00 -2°C° 0 mm 1 m/s 586 mmHg 36%
    14:00 -1°C° 0 mm 1 m/s 586 mmHg 36%
    15:00 -1°C° 0 mm 1 m/s 586 mmHg 39%
    16:00 -1°C° 0 mm 1 m/s 586 mmHg 42%
    17:00 -2°C° 0 mm 1 m/s 586 mmHg 46%
    18:00 -2°C° 0 mm 1 m/s 586 mmHg 49%
    19:00 -3°C° 0 mm 1 m/s 586 mmHg 53%
    20:00 -4°C° 0 mm 1 m/s 586 mmHg 56%
    21:00 -4°C° 0 mm 1 m/s 586 mmHg 58%
    22:00 -4°C° 0 mm 1 m/s 586 mmHg 59%
    23:00 -4°C° 0 mm 1 m/s 586 mmHg 61%

    27 Janvier, Dimanche

    Heure Température Précipitation Vent Pression Humidité
    00:00 -6°C° 0 mm 1 m/s 586 mmHg 61%
    01:00 -7°C° 0 mm 2 m/s 586 mmHg 62%
    02:00 -7°C° 0 mm 2 m/s 586 mmHg 62%
    03:00 -8°C° 0 mm 2 m/s 586 mmHg 62%
    04:00 -8°C° 0 mm 2 m/s 585 mmHg 63%
    05:00 -8°C° 0 mm 2 m/s 585 mmHg 63%
    06:00 -8°C° 0 mm 2 m/s 585 mmHg 63%
    07:00 -8°C° 0 mm 2 m/s 586 mmHg 63%
    08:00 -8°C° 0 mm 2 m/s 586 mmHg 63%
    09:00 -7°C° 0 mm 2 m/s 587 mmHg 59%
    10:00 -6°C° 0 mm 2 m/s 587 mmHg 55%
    11:00 -4°C° 0 mm 2 m/s 587 mmHg 51%
    12:00 -4°C° 0 mm 2 m/s 587 mmHg 49%
    13:00 -1°C° 0 mm 1 m/s 587 mmHg 48%
    14:00 0°C° 0 mm 1 m/s 586 mmHg 46%
    15:00 0°C° 0 mm 1 m/s 586 mmHg 47%
    16:00 0°C° 0 mm 1 m/s 586 mmHg 49%
    17:00 -1°C° 0 mm 1 m/s 585 mmHg 50%
    18:00 -2°C° 0 mm 1 m/s 586 mmHg 53%
    19:00 -2°C° 0 mm 1 m/s 586 mmHg 55%
    20:00 -3°C° 0 mm 1 m/s 587 mmHg 58%
    21:00 -3°C° 0 mm 1 m/s 587 mmHg 58%
    22:00 -4°C° 0 mm 1 m/s 587 mmHg 58%
    23:00 -4°C° 0 mm 1 m/s 587 mmHg 57%

    28 Janvier, Lundi

    Heure Température Précipitation Vent Pression Humidité
    00:00 -4°C° 0 mm 1 m/s 587 mmHg 58%
    01:00 -4°C° 0 mm 1 m/s 586 mmHg 58%
    02:00 -4°C° 0 mm 1 m/s 586 mmHg 59%
    03:00 -6°C° 0 mm 1 m/s 586 mmHg 61%
    04:00 -6°C° 0 mm 1 m/s 586 mmHg 62%
    05:00 -6°C° 0 mm 1 m/s 586 mmHg 64%
    06:00 -6°C° 0 mm 1 m/s 586 mmHg 63%
    07:00 -6°C° 0 mm 1 m/s 586 mmHg 62%
    08:00 -6°C° 0 mm 1 m/s 586 mmHg 62%
    09:00 -4°C° 0 mm 1 m/s 587 mmHg 55%
    10:00 -2°C° 0 mm 1 m/s 587 mmHg 49%
    11:00 -1°C° 0 mm 1 m/s 588 mmHg 42%
    12:00 0°C° 0 mm 1 m/s 587 mmHg 41%
    13:00 +1°C° 0 mm 1 m/s 587 mmHg 40%
    14:00 +2°C° 0 mm 1 m/s 586 mmHg 38%
    15:00 +2°C° 0 mm 1 m/s 586 mmHg 39%
    16:00 +2°C° 0 mm 1 m/s 586 mmHg 40%
    17:00 +1°C° 0 mm 1 m/s 586 mmHg 41%
    18:00 0°C° 0 mm 1 m/s 586 mmHg 41%
    19:00 0°C° 0 mm 1 m/s 586 mmHg 42%
    20:00 -1°C° 0 mm 1 m/s 586 mmHg 43%
    21:00 -1°C° 0 mm 1 m/s 586 mmHg 44%
    22:00 -2°C° 0 mm 0 m/s 586 mmHg 45%
    23:00 -2°C° 0 mm 0 m/s 586 mmHg 46%

    29 Janvier, Mardi

    Heure Température Précipitation Vent Pression Humidité
    00:00 -2°C° 0 mm 0 m/s 586 mmHg 48%
    01:00 -2°C° 0 mm 0 m/s 586 mmHg 50%
    02:00 -2°C° 0 mm 0 m/s 585 mmHg 52%
    03:00 -2°C° 0 mm 0 m/s 585 mmHg 54%
    04:00 -3°C° 0 mm 0 m/s 585 mmHg 56%
    05:00 -3°C° 0 mm 0 m/s 584 mmHg 58%
    06:00 -3°C° 0 mm 0 m/s 584 mmHg 56%
    07:00 -2°C° 0 mm 0 m/s 585 mmHg 55%
    08:00 -2°C° 0 mm 0 m/s 585 mmHg 54%
    09:00 -1°C° 0 mm 0 m/s 585 mmHg 51%
    10:00 +1°C° 0 mm 0 m/s 586 mmHg 48%
    11:00 +2°C° 0 mm 0 m/s 586 mmHg 46%
    12:00 +4°C° 0 mm 1 m/s 586 mmHg 45%
    13:00 +5°C° 0 mm 1 m/s 585 mmHg 45%
    14:00 +5°C° 0 mm 1 m/s 585 mmHg 44%
    15:00 +5°C° 0 mm 1 m/s 585 mmHg 46%
    16:00 +5°C° 0 mm 1 m/s 585 mmHg 47%
    17:00 +4°C° 0 mm 0 m/s 584 mmHg 49%
    18:00 +4°C° 0 mm 1 m/s 585 mmHg 51%
    19:00 +4°C° 0 mm 1 m/s 585 mmHg 54%
    20:00 +4°C° 0 mm 1 m/s 585 mmHg 56%
    21:00 +3°C° 0.2 mm 1 m/s 585 mmHg 61%
    22:00 +3°C° 0.2 mm 1 m/s 585 mmHg 66%
    23:00 +3°C° 0.2 mm 1 m/s 585 mmHg 71%
    Voir plus